Погода в Турмеро

Венесуэла     10°13′13″N   67°29′25″W
темп.,
°C
ветер,
м/с
пор.,
м/с
влажн.,
%
обл.,
%
осадки,
мм/ч
давл.,
гПа
погр.,
м
15 апреля, чт
чт1523:00+22юз1284100 0.1 1014175
02:00+20зсз019085 0.1 1012107
05:00+20ююв0191100 0.0 1012100
08:00+22ююв0181100 0.0 1014288
11:00+26юз2262100 2.5 1014788
14:00+27ю225954 7.2 10111233
17:00+27юз1161100 3.4 10091026
20:00+24вюв127626 5.3 1012192
16 апреля, пт
пт1623:00+23всв12815 0.3 101393
02:00+22всв1283100 0.9 101177
05:00+21в228527 0.1 101272
08:00+23юв237553 0.1 1013296
11:00+28ююв355385 0.0 10131624
14:00+29ююв454685 0.2 10102087
17:00+29юв2448100 0.3 10091201
20:00+26юв016088 0.7 1011235
17 апреля, сб
сб1723:00+25вюв1365100 0.3 1013175
02:00+23всв22745 0.9 101267
05:00+22в1275100 0.0 101255
08:00+24вюв236891 0.0 1014333
11:00+29ююв355090 0.0 10141816
14:00+30ююв564189 0.1 10122405
17:00+30юв3435100 0.1 10102087
20:00+25ссв1156100 0.1 101275
18 апреля, вс
вс1823:00+24св2264100 0.0 101582
02:00+23всв1265100 0.1 1013137
05:00+21вюв237384 0.0 1014115
08:00+24вюв126687 0.0 1016354
11:00+29ю234275 0.0 10151968
14:00+32ю352828 0.1 10122745
17:00+30ссз233942 0.3 10101922
20:00+24с236529 0.4 101398
19 апреля, пн
пн1923:00+23в126761 0.0 1015124
02:00+22вюв1274100 0.0 1014129
05:00+21в1274100 0.0 1014102
08:00+23вюв1267100 0.0 1016361
11:00+29ююз224497 0.0 10161831
14:00+32ю243094 0.1 10122733
17:00+29зсз133995 0.1 10111660
20:00+24с23686 0.1 1013150